• In Belarus
  • List of Countries
  • For 7 days
  • Water Temperature
  • Satellite Maps
  • Weather Map
  • Weather Widgets
  • user-avatar
    Login

    Hourly Weather Blagoevgrad

    Today, 19 July, Friday

    Time Temperature Precipitation Wind Pressure Humidity
    00:00 +19°C° 0 mm 1 mps 719 mmHg 75%
    01:00 +19°C° 0 mm 1 mps 720 mmHg 76%
    02:00 +18°C° 0 mm 1 mps 720 mmHg 77%
    03:00 +18°C° 0 mm 1 mps 720 mmHg 77%
    04:00 +18°C° 0 mm 1 mps 720 mmHg 78%
    05:00 +16°C° 0 mm 0 mps 720 mmHg 78%
    06:00 +18°C° 0 mm 0 mps 721 mmHg 74%
    07:00 +19°C° 0 mm 0 mps 721 mmHg 70%
    08:00 +22°C° 0 mm 0 mps 721 mmHg 64%
    09:00 +23°C° 0.3 mm 0 mps 721 mmHg 60%
    10:00 +27°C° 0.3 mm 1 mps 722 mmHg 56%
    11:00 +28°C° 0.3 mm 1 mps 722 mmHg 52%
    12:00 +28°C° 0.7 mm 1 mps 722 mmHg 51%
    13:00 +29°C° 0.7 mm 1 mps 722 mmHg 50%
    14:00 +29°C° 0.7 mm 1 mps 721 mmHg 49%
    15:00 +28°C° 0.6 mm 1 mps 721 mmHg 52%
    16:00 +28°C° 0.6 mm 1 mps 721 mmHg 56%
    17:00 +27°C° 0.6 mm 1 mps 721 mmHg 59%
    18:00 +25°C° 0.5 mm 1 mps 721 mmHg 66%
    19:00 +23°C° 0.5 mm 1 mps 721 mmHg 73%
    20:00 +21°C° 0.5 mm 1 mps 721 mmHg 81%
    21:00 +20°C° 0.2 mm 1 mps 721 mmHg 81%
    22:00 +20°C° 0.2 mm 1 mps 722 mmHg 81%
    23:00 +19°C° 0.2 mm 1 mps 722 mmHg 81%

    Tomorrow, 20 July, Saturday

    Time Temperature Precipitation Wind Pressure Humidity
    00:00 +19°C° 0.1 mm 1 mps 722 mmHg 81%
    01:00 +18°C° 0.1 mm 1 mps 722 mmHg 81%
    02:00 +18°C° 0.1 mm 1 mps 722 mmHg 81%
    03:00 +18°C° 0 mm 1 mps 722 mmHg 81%
    04:00 +18°C° 0 mm 1 mps 722 mmHg 81%
    05:00 +16°C° 0 mm 1 mps 722 mmHg 81%
    06:00 +19°C° 0 mm 1 mps 723 mmHg 78%
    07:00 +21°C° 0 mm 1 mps 723 mmHg 74%
    08:00 +23°C° 0 mm 1 mps 723 mmHg 71%
    09:00 +24°C° 0.1 mm 1 mps 723 mmHg 65%
    10:00 +26°C° 0.1 mm 1 mps 724 mmHg 59%
    11:00 +28°C° 0.1 mm 1 mps 724 mmHg 53%
    12:00 +29°C° 0.4 mm 1 mps 724 mmHg 51%
    13:00 +30°C° 0.4 mm 1 mps 724 mmHg 49%
    14:00 +30°C° 0.4 mm 1 mps 724 mmHg 47%
    15:00 +30°C° 0.3 mm 1 mps 723 mmHg 47%
    16:00 +30°C° 0.3 mm 1 mps 723 mmHg 48%
    17:00 +30°C° 0.3 mm 1 mps 723 mmHg 48%
    18:00 +28°C° 0.1 mm 1 mps 723 mmHg 54%
    19:00 +26°C° 0.1 mm 1 mps 723 mmHg 60%
    20:00 +24°C° 0.1 mm 1 mps 723 mmHg 66%
    21:00 +23°C° 0 mm 1 mps 723 mmHg 68%
    22:00 +22°C° 0 mm 1 mps 724 mmHg 71%
    23:00 +21°C° 0 mm 1 mps 724 mmHg 73%

    Day after tomorrow, 21 July, Sunday

    Time Temperature Precipitation Wind Pressure Humidity
    00:00 +20°C° 0 mm 1 mps 724 mmHg 74%
    01:00 +20°C° 0 mm 1 mps 724 mmHg 76%
    02:00 +20°C° 0 mm 1 mps 724 mmHg 77%
    03:00 +19°C° 0 mm 1 mps 724 mmHg 78%
    04:00 +19°C° 0 mm 1 mps 724 mmHg 79%
    05:00 +19°C° 0 mm 1 mps 723 mmHg 80%
    06:00 +21°C° 0 mm 1 mps 724 mmHg 74%
    07:00 +22°C° 0 mm 1 mps 724 mmHg 69%
    08:00 +22°C° 0 mm 0 mps 725 mmHg 64%
    09:00 +26°C° 0 mm 1 mps 725 mmHg 58%
    10:00 +28°C° 0 mm 1 mps 725 mmHg 52%
    11:00 +29°C° 0 mm 1 mps 725 mmHg 46%
    12:00 +30°C° 0 mm 1 mps 725 mmHg 44%
    13:00 +31°C° 0 mm 1 mps 725 mmHg 42%
    14:00 +32°C° 0 mm 1 mps 724 mmHg 40%
    15:00 +32°C° 0 mm 2 mps 724 mmHg 40%
    16:00 +31°C° 0 mm 2 mps 724 mmHg 40%
    17:00 +31°C° 0 mm 2 mps 724 mmHg 41%
    18:00 +29°C° 0 mm 2 mps 724 mmHg 47%
    19:00 +27°C° 0 mm 2 mps 724 mmHg 54%
    20:00 +25°C° 0 mm 1 mps 723 mmHg 61%
    21:00 +24°C° 0 mm 1 mps 724 mmHg 62%
    22:00 +23°C° 0 mm 1 mps 724 mmHg 63%
    23:00 +22°C° 0 mm 1 mps 724 mmHg 64%

    22 July, Monday

    Time Temperature Precipitation Wind Pressure Humidity
    00:00 +22°C° 0 mm 1 mps 724 mmHg 66%
    01:00 +21°C° 0 mm 1 mps 724 mmHg 68%
    02:00 +21°C° 0 mm 1 mps 724 mmHg 71%
    03:00 +20°C° 0 mm 1 mps 724 mmHg 72%
    04:00 +20°C° 0 mm 1 mps 724 mmHg 74%
    05:00 +20°C° 0 mm 1 mps 723 mmHg 75%
    06:00 +22°C° 0 mm 1 mps 724 mmHg 71%
    07:00 +24°C° 0 mm 1 mps 724 mmHg 66%
    08:00 +25°C° 0 mm 1 mps 724 mmHg 62%
    09:00 +27°C° 0 mm 1 mps 724 mmHg 56%
    10:00 +29°C° 0 mm 2 mps 725 mmHg 51%
    11:00 +31°C° 0 mm 2 mps 725 mmHg 46%
    12:00 +31°C° 0 mm 2 mps 724 mmHg 45%
    13:00 +32°C° 0 mm 2 mps 724 mmHg 44%
    14:00 +33°C° 0 mm 3 mps 724 mmHg 42%
    15:00 +33°C° 0 mm 3 mps 723 mmHg 46%
    16:00 +31°C° 0 mm 3 mps 723 mmHg 50%
    17:00 +31°C° 0 mm 3 mps 723 mmHg 54%
    18:00 +29°C° 0.1 mm 3 mps 723 mmHg 60%
    19:00 +27°C° 0.1 mm 2 mps 723 mmHg 66%
    20:00 +25°C° 0.1 mm 2 mps 723 mmHg 72%
    21:00 +24°C° 0 mm 2 mps 723 mmHg 73%
    22:00 +23°C° 0 mm 2 mps 723 mmHg 74%
    23:00 +23°C° 0 mm 1 mps 723 mmHg 76%

    23 July, Tuesday

    Time Temperature Precipitation Wind Pressure Humidity
    00:00 +22°C° 0 mm 1 mps 723 mmHg 78%
    01:00 +22°C° 0 mm 1 mps 723 mmHg 81%
    02:00 +21°C° 0 mm 1 mps 723 mmHg 84%
    03:00 +21°C° 0 mm 1 mps 722 mmHg 85%
    04:00 +20°C° 0 mm 1 mps 722 mmHg 86%
    05:00 +20°C° 0 mm 1 mps 722 mmHg 87%
    06:00 +20°C° 0 mm 2 mps 722 mmHg 79%
    07:00 +23°C° 0 mm 2 mps 722 mmHg 72%
    08:00 +25°C° 0 mm 2 mps 722 mmHg 64%
    09:00 +26°C° 0 mm 3 mps 722 mmHg 58%
    10:00 +27°C° 0 mm 4 mps 722 mmHg 53%
    11:00 +28°C° 0 mm 4 mps 722 mmHg 47%
    12:00 +29°C° 0 mm 4 mps 722 mmHg 46%
    13:00 +29°C° 0 mm 5 mps 721 mmHg 46%
    14:00 +29°C° 0 mm 5 mps 721 mmHg 45%
    15:00 +29°C° 0 mm 5 mps 721 mmHg 48%
    16:00 +29°C° 0 mm 5 mps 720 mmHg 50%
    17:00 +28°C° 0 mm 5 mps 720 mmHg 53%
    18:00 +26°C° 0.1 mm 4 mps 720 mmHg 60%
    19:00 +25°C° 0.1 mm 4 mps 721 mmHg 68%
    20:00 +22°C° 0.1 mm 3 mps 721 mmHg 75%
    21:00 +21°C° 0.1 mm 3 mps 721 mmHg 76%
    22:00 +21°C° 0.1 mm 2 mps 721 mmHg 78%
    23:00 +20°C° 0.1 mm 2 mps 722 mmHg 79%

    24 July, Wednesday

    Time Temperature Precipitation Wind Pressure Humidity
    00:00 +19°C° 0 mm 2 mps 722 mmHg 81%
    01:00 +19°C° 0 mm 1 mps 721 mmHg 82%
    02:00 +18°C° 0 mm 1 mps 721 mmHg 84%
    03:00 +18°C° 0 mm 1 mps 721 mmHg 84%
    04:00 +16°C° 0 mm 1 mps 721 mmHg 84%
    05:00 +16°C° 0 mm 1 mps 721 mmHg 85%
    06:00 +19°C° 0 mm 1 mps 721 mmHg 79%
    07:00 +20°C° 0 mm 1 mps 722 mmHg 73%
    08:00 +21°C° 0 mm 2 mps 722 mmHg 67%
    09:00 +24°C° 0 mm 2 mps 722 mmHg 61%
    10:00 +25°C° 0 mm 2 mps 722 mmHg 55%
    11:00 +27°C° 0 mm 3 mps 722 mmHg 48%
    12:00 +27°C° 0 mm 3 mps 722 mmHg 46%
    13:00 +28°C° 0 mm 3 mps 721 mmHg 44%
    14:00 +29°C° 0 mm 3 mps 721 mmHg 42%
    15:00 +28°C° 0 mm 3 mps 721 mmHg 42%
    16:00 +28°C° 0 mm 3 mps 721 mmHg 43%
    17:00 +28°C° 0 mm 3 mps 721 mmHg 43%
    18:00 +26°C° 0 mm 3 mps 721 mmHg 50%
    19:00 +24°C° 0 mm 2 mps 721 mmHg 58%
    20:00 +20°C° 0 mm 2 mps 721 mmHg 65%
    21:00 +20°C° 0 mm 2 mps 721 mmHg 67%
    22:00 +20°C° 0 mm 1 mps 721 mmHg 70%
    23:00 +19°C° 0 mm 1 mps 722 mmHg 72%
    Show more